TimeEDT,TemperatureF,Dew PointF,Humidity,Sea Level PressureIn,VisibilityMPH,Wind Direction,Wind SpeedMPH,Gust SpeedMPH,PrecipitationIn,Events,Conditions,WindDirDegrees,DateUTC
12:53 AM,28.0,21.9,78,30.26,10.0,Calm,Calm,-,N/A,,Clear,0,2014-04-16 04:53:00
1:53 AM,28.9,21.9,75,30.28,10.0,Calm,Calm,-,N/A,,Clear,0,2014-04-16 05:53:00
2:53 AM,28.0,19.9,72,30.30,10.0,Calm,Calm,-,N/A,,Clear,0,2014-04-16 06:53:00
3:53 AM,28.9,19.9,69,30.32,10.0,SSE,3.5,-,N/A,,Clear,150,2014-04-16 07:53:00
4:53 AM,28.0,19.0,69,30.33,10.0,SE,3.5,-,N/A,,Clear,140,2014-04-16 08:53:00
5:53 AM,28.0,19.9,72,30.34,10.0,ESE,5.8,-,N/A,,Clear,120,2014-04-16 09:53:00
6:53 AM,28.9,19.9,69,30.35,10.0,SSE,4.6,-,N/A,,Clear,160,2014-04-16 10:53:00
7:53 AM,30.0,19.9,66,30.37,10.0,SE,5.8,-,N/A,,Clear,140,2014-04-16 11:53:00
8:53 AM,33.1,19.9,59,30.38,10.0,SE,9.2,-,N/A,,Clear,140,2014-04-16 12:53:00
9:53 AM,37.0,19.9,50,30.38,10.0,SE,9.2,-,N/A,,Clear,140,2014-04-16 13:53:00
10:53 AM,39.9,21.0,47,30.38,10.0,ESE,11.5,-,N/A,,Clear,120,2014-04-16 14:53:00
11:53 AM,42.1,21.0,43,30.39,10.0,ESE,13.8,-,N/A,,Clear,110,2014-04-16 15:53:00
12:53 PM,44.1,23.0,43,30.37,10.0,ESE,11.5,20.7,N/A,,Clear,120,2014-04-16 16:53:00
2:53 PM,48.0,21.9,36,30.31,10.0,SSE,11.5,19.6,N/A,,Clear,150,2014-04-16 18:53:00
3:53 PM,50.0,21.0,32,30.28,10.0,SSE,13.8,20.7,N/A,,Clear,150,2014-04-16 19:53:00
4:53 PM,51.1,21.0,31,30.25,10.0,SE,12.7,-,N/A,,Clear,140,2014-04-16 20:53:00
5:53 PM,51.1,21.0,31,30.22,10.0,SE,12.7,23.0,N/A,,Clear,140,2014-04-16 21:53:00
6:53 PM,50.0,21.0,32,30.20,10.0,ESE,12.7,-,N/A,,Clear,120,2014-04-16 22:53:00
7:53 PM,48.9,21.9,35,30.21,10.0,SE,9.2,-,N/A,,Clear,130,2014-04-16 23:53:00
8:53 PM,46.9,21.9,37,30.21,10.0,SE,8.1,-,N/A,,Clear,130,2014-04-17 00:53:00
9:53 PM,46.0,21.9,39,30.23,10.0,SE,5.8,-,N/A,,Clear,140,2014-04-17 01:53:00
10:53 PM,45.0,23.0,42,30.23,10.0,SE,8.1,-,N/A,,Clear,140,2014-04-17 02:53:00
11:53 PM,44.1,23.0,43,30.23,10.0,SE,8.1,-,N/A,,Clear,140,2014-04-17 03:53:00